Helena, Arkansas, United States (72342)
Lat: 34.53N, Lon: 90.59W
Wx Zone: ARZ058
Local Info
Past Weather Observations for Friday, September 26, 2014

NOTE: This archive is for the closest National Weather Service station to Helena. Information may differ from the station used for current weather conditions.

Click here for Long-term Archive

Time Weather Temperature Dewpoint Humidity Pressure Winds Precip Visibility
23:55
Clear
63°F / 17°C 61°F / 16°C 94% 30.12 in
(1020 mb)
NE 3.5 mph
(NE 6 kph)
- 10SM
23:35
Clear
63°F / 17°C 59°F / 15°C 88% 30.12 in
(1020 mb)
NE 5.8 mph
(NE 9 kph)
- 10SM
23:15
Clear
63°F / 17°C 59°F / 15°C 88% 30.12 in
(1020 mb)
NE 4.6 mph
(NE 7 kph)
- 10SM
22:55
Clear
63°F / 17°C 61°F / 16°C 94% 30.12 in
(1020 mb)
Calm - 10SM
22:35
Clear
64°F / 18°C 61°F / 16°C 88% 30.12 in
(1020 mb)
Calm - 10SM
22:15
Clear
64°F / 18°C 61°F / 16°C 88% 30.12 in
(1020 mb)
N 3.5 mph
(N 6 kph)
- 10SM
21:55
Clear
64°F / 18°C 59°F / 15°C 83% 30.12 in
(1020 mb)
NE 4.6 mph
(NE 7 kph)
- 10SM
21:35
Clear
64°F / 18°C 61°F / 16°C 88% 30.12 in
(1020 mb)
NE 4.6 mph
(NE 7 kph)
- 10SM
21:15
Clear
68°F / 20°C 63°F / 17°C 83% 30.12 in
(1020 mb)
NE 4.6 mph
(NE 7 kph)
- 10SM
20:55
Clear
70°F / 21°C 63°F / 17°C 78% 30.12 in
(1020 mb)
NE 3.5 mph
(NE 6 kph)
- 10SM
20:35
Clear
68°F / 20°C 61°F / 16°C 78% 30.12 in
(1020 mb)
NE 3.5 mph
(NE 6 kph)
- 10SM
20:15
Clear
68°F / 20°C 61°F / 16°C 78% 30.12 in
(1020 mb)
N 4.6 mph
(N 7 kph)
- 10SM
19:55
Clear
68°F / 20°C 63°F / 17°C 83% 30.12 in
(1020 mb)
N 4.6 mph
(N 7 kph)
- 10SM
19:35
Clear
70°F / 21°C 61°F / 16°C 73% 30.12 in
(1020 mb)
N 4.6 mph
(N 7 kph)
- 10SM
19:15
Clear
72°F / 22°C 63°F / 17°C 73% 30.12 in
(1020 mb)
NNW 3.5 mph
(NNW 6 kph)
- 10SM
18:55
Partly Cloudy
73°F / 23°C 61°F / 16°C 65% 30.09 in
(1019 mb)
NNE 3.5 mph
(NNE 6 kph)
- 10SM
18:35
Partly Cloudy
73°F / 23°C 61°F / 16°C 65% 30.09 in
(1019 mb)
NE 3.5 mph
(NE 6 kph)
- 10SM
18:15
Partly Cloudy
75°F / 24°C 61°F / 16°C 61% 30.09 in
(1019 mb)
Calm - 10SM
17:55
Partly Cloudy
77°F / 25°C 61°F / 16°C 57% 30.09 in
(1019 mb)
Calm - 10SM
17:35
Clear
79°F / 26°C 61°F / 16°C 54% 30.09 in
(1019 mb)
Calm - 10SM
17:15
Clear
79°F / 26°C 59°F / 15°C 51% 30.09 in
(1019 mb)
Calm - 10SM
16:55
Clear
81°F / 27°C 59°F / 15°C 48% 30.09 in
(1019 mb)
NE 5.8 mph
(NE 9 kph)
- 10SM
16:35
Clear
81°F / 27°C 55°F / 13°C 42% 30.09 in
(1019 mb)
NE 5.8 mph
(NE 9 kph)
- 10SM
16:15
Clear
81°F / 27°C 55°F / 13°C 42% 30.09 in
(1019 mb)
NE 8.1 mph
(NE 13 kph)
- 10SM
15:55
Clear
82°F / 28°C 55°F / 13°C 40% 30.09 in
(1019 mb)
NE 5.8 mph
(NE 9 kph)
- 10SM
15:35
Clear
82°F / 28°C 54°F / 12°C 37% 30.09 in
(1019 mb)
NE 11.5 mph
(NE 19 kph)
- 10SM
15:15
Clear
86°F / 30°C 54°F / 12°C 33% 30.09 in
(1019 mb)
NE 9.2 mph
(NE 15 kph)
- 10SM
14:55
Clear
84°F / 29°C 55°F / 13°C 37% 30.09 in
(1019 mb)
ENE 10.4 mph
(ENE 17 kph)
- 10SM
14:35
Clear
84°F / 29°C 54°F / 12°C 35% 30.09 in
(1019 mb)
ENE 8.1 mph
(ENE 13 kph)
- 10SM
14:15
Clear
82°F / 28°C 55°F / 13°C 40% 30.09 in
(1019 mb)
ENE 9.2 mph
(ENE 15 kph)
- 10SM
13:55
Clear
84°F / 29°C 55°F / 13°C 37% 30.09 in
(1019 mb)
NE 6.9 mph
(NE 11 kph)
- 10SM
13:35
Clear
82°F / 28°C 55°F / 13°C 40% 30.12 in
(1020 mb)
NNE 5.8 mph
(NNE 9 kph)
- 10SM
13:15
Clear
86°F / 30°C 55°F / 13°C 35% 30.12 in
(1020 mb)
NE 8.1 mph
(NE 13 kph)
- 10SM
12:55
Clear
84°F / 29°C 55°F / 13°C 37% 30.12 in
(1020 mb)
NE 9.2 mph
(NE 15 kph)
- 10SM
12:35
Clear
84°F / 29°C 55°F / 13°C 37% 30.12 in
(1020 mb)
NNE 8.1 mph
(NNE 13 kph)
- 10SM
12:15
Clear
84°F / 29°C 55°F / 13°C 37% 30.15 in
(1021 mb)
NE 9.2 mph
(NE 15 kph)
- 10SM
11:55
Clear
82°F / 28°C 55°F / 13°C 40% 30.15 in
(1021 mb)
ENE 5.8 mph
(ENE 9 kph)
- 10SM
11:35
Clear
84°F / 29°C 55°F / 13°C 37% 30.15 in
(1021 mb)
ENE 8.1 mph
(ENE 13 kph)
- 10SM
11:15
Clear
82°F / 28°C 55°F / 13°C 40% 30.15 in
(1021 mb)
NE 9.2 mph
(NE 15 kph)
- 10SM
10:55
Clear
82°F / 28°C 55°F / 13°C 40% 30.15 in
(1021 mb)
NE 6.9 mph
(NE 11 kph)
- 10SM
10:35
Clear
82°F / 28°C 57°F / 14°C 42% 30.18 in
(1022 mb)
NE 5.8 mph
(NE 9 kph)
- 10SM
10:15
Clear
81°F / 27°C 57°F / 14°C 45% 30.18 in
(1022 mb)
NNE 6.9 mph
(NNE 11 kph)
- 10SM
09:55
Clear
79°F / 26°C 59°F / 15°C 51% 30.18 in
(1022 mb)
NE 6.9 mph
(NE 11 kph)
- 10SM
09:35
Clear
79°F / 26°C 59°F / 15°C 51% 30.18 in
(1022 mb)
NE 6.9 mph
(NE 11 kph)
- 10SM
09:15
Clear
77°F / 25°C 61°F / 16°C 57% 30.18 in
(1022 mb)
NE 5.8 mph
(NE 9 kph)
- 10SM
08:55
Clear
75°F / 24°C 61°F / 16°C 61% 30.18 in
(1022 mb)
NE 4.6 mph
(NE 7 kph)
- 10SM
08:35
Clear
72°F / 22°C 63°F / 17°C 73% 30.18 in
(1022 mb)
Calm - 10SM
08:15
Clear
70°F / 21°C 63°F / 17°C 78% 30.18 in
(1022 mb)
NE 3.5 mph
(NE 6 kph)
- 10SM
07:55
Clear
66°F / 19°C 63°F / 17°C 88% 30.18 in
(1022 mb)
N 3.5 mph
(N 6 kph)
- 10SM
07:35
Clear
64°F / 18°C 61°F / 16°C 88% 30.18 in
(1022 mb)
Calm - 10SM
07:15
Clear
63°F / 17°C 61°F / 16°C 94% 30.18 in
(1022 mb)
Calm - 7SM
06:55
Clear
61°F / 16°C 61°F / 16°C 100% 30.18 in
(1022 mb)
NNW 3.5 mph
(NNW 6 kph)
- 7SM
06:35
Clear
59°F / 15°C 59°F / 15°C 100% 30.18 in
(1022 mb)
NNW 3.5 mph
(NNW 6 kph)
- 7SM
06:15
Clear
Fog And Mist
57°F / 14°C 55°F / 13°C 94% 30.15 in
(1021 mb)
N 3.5 mph
(N 6 kph)
- 5SM
05:55
Clear
Fog And Mist
59°F / 15°C 57°F / 14°C 94% 30.15 in
(1021 mb)
Calm - 5SM
05:35
Clear
59°F / 15°C 57°F / 14°C 94% 30.15 in
(1021 mb)
Calm - 7SM
05:15
Clear
59°F / 15°C 57°F / 14°C 94% 30.15 in
(1021 mb)
Calm - 7SM
04:55
Clear
59°F / 15°C 55°F / 13°C 88% 30.15 in
(1021 mb)
Calm - 10SM
04:35
Clear
59°F / 15°C 55°F / 13°C 88% 30.15 in
(1021 mb)
Calm - 10SM
04:15
Clear
59°F / 15°C 57°F / 14°C 94% 30.15 in
(1021 mb)
Calm - 10SM
03:55
Clear
59°F / 15°C 55°F / 13°C 88% 30.15 in
(1021 mb)
Calm - 10SM
03:35
Clear
59°F / 15°C 55°F / 13°C 88% 30.15 in
(1021 mb)
NNW 3.5 mph
(NNW 6 kph)
- 10SM
03:15
Clear
59°F / 15°C 55°F / 13°C 88% 30.15 in
(1021 mb)
Calm - 10SM
02:55
Clear
59°F / 15°C 55°F / 13°C 88% 30.15 in
(1021 mb)
NNW 3.5 mph
(NNW 6 kph)
- 10SM
02:35
Clear
61°F / 16°C 57°F / 14°C 88% 30.15 in
(1021 mb)
NNW 4.6 mph
(NNW 7 kph)
- 10SM
02:15
Clear
61°F / 16°C 57°F / 14°C 88% 30.15 in
(1021 mb)
NNW 5.8 mph
(NNW 9 kph)
- 10SM
01:55
Clear
61°F / 16°C 57°F / 14°C 88% 30.15 in
(1021 mb)
N 3.5 mph
(N 6 kph)
- 10SM
01:35
Clear
61°F / 16°C 57°F / 14°C 88% 30.15 in
(1021 mb)
N 3.5 mph
(N 6 kph)
- 10SM
01:15
Clear
61°F / 16°C 57°F / 14°C 88% 30.15 in
(1021 mb)
Calm - 10SM
00:55
Clear
63°F / 17°C 59°F / 15°C 88% 30.15 in
(1021 mb)
Calm - 10SM
00:35
Clear
61°F / 16°C 57°F / 14°C 88% 30.15 in
(1021 mb)
Calm - 10SM
00:15
Clear
61°F / 16°C 57°F / 14°C 88% 30.15 in
(1021 mb)
N 4.6 mph
(N 7 kph)
- 10SM
Time Weather Temperature Dewpoint Humidity Pressure Winds Precip Visibility


Weather for websites

WeatherForYou.com, LLC is not responsible for any damages or problems caused by this service. Current weather conditions are obtained from the closest station including government and personal stations which may have varying degrees of accuracy. Weather forecasts are derived from the NOAA NDFD. Like all things, this site belongs to Jesus Christ... He just trusts me to maintain it. If you have any questions or comments email webmaster@weatherforyou.com

Copyright © 2014, WeatherForYou.com LLC. All rights reserved.